KQ4BDX-7 messages


fromtotime message
SMS KQ4BDX-7 08/29 00:26:38z Reply @2295486681 test{14303
SMS KQ4BDX-7 08/29 00:25:58z Reply @2295486681 test{14302
WXBOT KQ4BDX-7 08/28 04:08:37z Reply ound 75. Light south wind.
WXBOT KQ4BDX-7 08/28 04:08:32z Reply s between 3am and 4am. Mostly cloudy, with a steady temperature ar
WXBOT KQ4BDX-7 08/28 04:08:27z Reply 3 Miles SSE Saint Marys GA. Overnight,A 20 percent chance of shower
KQ4BDX-7 WXBOT 08/28 04:08:19z Send another full{41
SMS KQ4BDX-7 07/05 04:11:07z Reply @2295486681 ok diddy bruh{83083
SMS KQ4BDX-7 07/05 04:10:41z Reply @2295486681 ok diddy bruh{83055
SMS KQ4BDX-7 07/05 04:10:05z Reply @2295486681 ok diddy bruh{6638
WXBOT KQ4BDX-7 07/05 04:09:14z Reply Sorry, unable to get a forecast for location -23.4375/-47.09067{0
WXBOT KQ4BDX-7 07/05 04:07:33z Reply Sorry, unable to get a forecast for location -23.4375/-47.09067
KQ4BDX-7 WXBOT 07/05 04:07:28z Send another @2295486681 test{0
KQ4BDX-7 SMS 07/05 04:07:11z Send another @2295486681 test {36
KQ4BDX-7 WXBOT 07/05 04:05:09z Send another @2295486681 test{35
KQ4BDX-7 SMS 07/01 02:00:52z Send another @2298347108 testing{30
KQ4BDX-7 SMS 07/01 02:00:39z Send another @2295486681 test mkdigagaitdb{29
SMS KQ4BDX-7 07/01 01:59:12z Reply @2298347108 Just checking{6057
WXBOT KQ4BDX-7 07/01 01:49:45z Reply around 73. East wind around 5 mph becoming calm.
WXBOT KQ4BDX-7 07/01 01:49:40z Reply 5 Miles W Moody Air Force Base GA. Tonight,Mostly clear, with a low
KQ4BDX-7 WXBOT 07/01 01:49:31z Send another full{28
WXBOT KQ4BDX-7 06/30 00:22:28z Reply Forecast available only at United States locations
WXBOT KQ4BDX-7 06/30 00:22:23z Reply what= full,metar,cwop,current or whois
WXBOT KQ4BDX-7 06/30 00:22:18z Reply when= tonight,tomorrow, or day of week i.e. Sunday
WXBOT KQ4BDX-7 06/30 00:22:13z Reply where= City,ST callsign,APRS obj,lat/lon,grid,CWOP,airport or zip
WXBOT KQ4BDX-7 06/30 00:22:08z Reply Send an APRS message to WXBOT with 'where' 'when' 'what'
KQ4BDX-7 WXBOT 06/30 00:22:03z Send another help{27
KQ4BDX-7 SMS 06/29 21:52:13z Send another @2295486681 jmtpga{26
SMS KQ4BDX-7 06/29 21:51:47z Reply @2295486681 testing{5931
WXBOT KQ4BDX-7 06/29 21:51:12z Reply 5 mph.
WXBOT KQ4BDX-7 06/29 21:51:07z Reply gh near 97. Heat index values as high as 105. Northwest wind around
WXBOT KQ4BDX-7 06/29 21:51:02z Reply Remerton GA. Heat Advisory, This Afternoon,Sunny and hot, with a hi
KQ4BDX-7 WXBOT 06/29 21:50:53z Send another full{25
MPAD KQ4BDX-7 06/29 01:37:23z Reply Pres 1017.1mb Rain(in) 1h=0.0, 24h=0.0, mn=0.0{UB
MPAD KQ4BDX-7 06/29 01:37:17z Reply CWOP N4QCZ 29-Jun-26 82F 0deg Spd 0.0mph Gust 0.0mph Hum 76%{UA
KQ4BDX-7 MPAD 06/29 01:37:09z Send another cwop {22
MPAD KQ4BDX-7 06/29 01:30:57z Reply radiosonde landing predictions{TZ
MPAD KQ4BDX-7 06/29 01:30:51z Reply calculations,satellite passes&frequency data,DAPNET messaging,{TY
MPAD KQ4BDX-7 06/29 01:30:45z Reply repeater data lookups,CWOP reports,METAR and TAR reports,celestial{TX
MPAD KQ4BDX-7 06/29 01:30:39z Reply Supports: Wx forecasts,position reporting,OSM category searches,{TW
MPAD KQ4BDX-7 06/29 01:30:33z Reply See https://github.com/joergschultzelutter/mpad for command syntax{TV
KQ4BDX-7 MPAD 06/29 01:30:27z Send another help{21
WXYO KQ4BDX-7 06/29 01:27:19z Reply 28.21,W287@2.18,H73,P1017hPa,rain 0mm,snow 0mm,clouds 7 %{LV
WXYO KQ4BDX-7 06/29 01:27:14z Reply Moody A F B in 2026-06-29 03:00:00 clear sky T:27.8C Tmin 27.8,Tmax{LU
KQ4BDX-7 WXYO 06/29 01:27:08z Send another full{20
SMS KQ4BDX-7 06/29 01:09:28z Reply @2298347108 Test from me{5871
KQ4BDX-7 SMS 06/29 01:06:31z Send another @2298347108 test{19
SMS KQ4BDX-7 06/29 01:04:55z Reply Invalid Command or Msg!{5870
KQ4BDX-7 SMS 06/29 01:04:55z Send another test{18
SMS KQ4BDX-7 06/29 00:55:31z Reply Invalid Command or Msg!{5866
KQ4BDX-7 SMS 06/29 00:53:01z Send another ok{17
SMS KQ4BDX-7 06/29 00:52:51z Reply @2295486681 Whwhwhwhwhwhwhwhwhwhwhehwhwhwhwhwhwhwhwhwhwhwhwhwhw{5862
SMS KQ4BDX-7 06/29 00:52:34z Reply @2295486681 Whwhwhwhwhwhwhwhwhwhwhehwhwhwhwhwhwhwhwhwhwhwhwhwhw{5859
SMS KQ4BDX-7 06/29 00:50:21z Reply @2295486681 hwhwhwhwhwhwhwhwwwww{5863
SMS KQ4BDX-7 06/29 00:50:07z Reply @2295486681 Send testing back{5858
SMS KQ4BDX-7 06/29 00:50:04z Reply @2295486681 hwhwhwhwhwhwhwhw{5860
KQ4BDX-7 SMS 06/29 00:47:06z Send another @2295486681 @a@a@a@a@a@a@a@a@a/a@a@a@a@a@a@a@a@a@a@a@a@a@a@a@a@a@aa{16
WXYO KQ4BDX-7 06/29 00:13:26z Reply 29.98,W275@2.16,H64,P1017hPa,rain 0mm,snow 0mm,clouds 7 %{LO
WXYO KQ4BDX-7 06/29 00:13:21z Reply Remerton in 2026-06-29 03:00:00 clear sky T:29.98C Tmin 27.99,Tmax{LN
KQ4BDX-7 WXYO 06/29 00:13:15z Send another full{15
MPAD KQ4BDX-7 06/28 22:56:22z Reply radiosonde landing predictions{TL
MPAD KQ4BDX-7 06/28 22:56:16z Reply calculations,satellite passes&frequency data,DAPNET messaging,{TK
MPAD KQ4BDX-7 06/28 22:56:10z Reply repeater data lookups,CWOP reports,METAR and TAR reports,celestial{TJ
MPAD KQ4BDX-7 06/28 22:56:04z Reply Supports: Wx forecasts,position reporting,OSM category searches,{TI
MPAD KQ4BDX-7 06/28 22:55:59z Reply See https://github.com/joergschultzelutter/mpad for command syntax{TH
KQ4BDX-7 MPAD 06/28 22:55:51z Send another help{14
WXBOT KQ4BDX-7 06/28 22:34:43z Reply Sorry, unable to get a forecast for location 30.9913/-83.3727
WXYO KQ4BDX-7 06/28 22:17:10z Reply 32.86,W334@2.71,H60,P1017hPa,rain 0mm,snow 0mm,clouds 10 %{LA
WXYO KQ4BDX-7 06/28 22:17:04z Reply Remerton in 2026-06-29 00:00:00 clear sky T:32.86C Tmin 30.65,Tmax{KZ
KQ4BDX-7 WXYO 06/28 22:16:59z Send another full{13
SMS KQ4BDX-7 06/28 22:03:15z Reply @2295486681 Test{5837
KQ4BDX-7 SMS 06/28 22:02:31z Send another @2295486681 TEST{12
SMS KQ4BDX-7 06/28 22:02:02z Reply Invalid Command or Msg!{0
SMS KQ4BDX-7 06/28 22:00:46z Reply Invalid Command or Msg!{5836
KQ4BDX-7 SMS 06/28 22:00:46z Send another test 67{11
SMS KQ4BDX-7 06/28 21:59:13z Reply @2295486681 test{5835
KQ4BDX-7 WXBOT 06/28 21:51:43z Send another 31632{10